Regional Weather Roundup
Issued by NWS

Home | Current Version | Previous Version | Graphics & Text | Print | Product List | Glossary On
Versions: 1 2 3 4 5 6 7 8 9 10 11 12 13 14 15 16 17 18 19 20 21 22 23 24 25 26 27 28 29 30 31 32 33 34 35 36 37 38 39 40 41 42 43 44 45 46 47 48 49 50
000
ASUS43 KIND 220109
RWRIN

WEATHER ROUNDUP FOR INDIANA
NATIONAL WEATHER SERVICE INDIANAPOLIS IN
900 PM EDT MON JUL 21 2014

NOTE: "FAIR" INDICATES FEW OR NO CLOUDS BELOW 12,000 FEET WITH NO
SIGNIFICANT WEATHER AND/OR OBSTRUCTIONS TO VISIBILITY.

* - STATION DOES NOT REPORT WEATHER SUCH AS PRECIPITATION OR FOG.

+ - STATION NOT QUALITY CONTROLLED BY THE NATIONAL WEATHER SERVICE.
    USE DATA WITH CAUTION...ESPECIALLY DEWPOINT AND RELATIVE
    HUMIDITY OBSERVATIONS.

INZ001>003-010>013-019-020-220200-
NORTHWEST INDIANA

CITY           SKY/WX    TMP DP  RH WIND       PRES   REMARKS
KNOX *+        CLEAR     76  65  68 S3        30.08F
LA PORTE +     CLEAR     76  64  65 CALM      30.10S
MICHIGAN CITY+ CLEAR     77  63  61 CALM      30.08S
MONTICELLO +   CLEAR     76  69  77 CALM      30.08S
RENSSELAER +   CLEAR     73  70  88 CALM      30.09S
VALPARAISO     CLEAR     76  65  68 S5        30.09S

$$

LMZ046-743>745-220200-
SOUTHERN LAKE MICHIGAN

STATION/POSITION TIME  TEMP WIND        PRES
                       AIR  DIR/SP/G
                 (UTC) (F)  (DEG/KT/KT) (MB)
MICHIGAN CITY    0100   78  220/  3/  6   N/A

$$

INZ004-005-014>016-021>024-220200-
NORTH CENTRAL INDIANA

CITY           SKY/WX    TMP DP  RH WIND       PRES   REMARKS
ELKHART        CLEAR     79  63  57 CALM      30.10
GOSHEN         CLEAR     79  66  64 S3        30.09S
LOGANSPORT +   CLEAR     73  64  73 CALM      30.10S
PERU/GRISSOM   CLEAR     78  66  65 CALM      30.10S
ROCHESTER +    CLEAR     81  63  54 CALM      30.10S
SOUTH BEND     CLEAR     80  63  55 S6        30.09S
WARSAW +       CLEAR     79  63  57 CALM      30.10R

$$

INZ006>009-017-018-025>027-220200-
NORTHEAST INDIANA

CITY           SKY/WX    TMP DP  RH WIND       PRES   REMARKS
ANGOLA *+      CLEAR     79  72  78 CALM      30.11R
AUBURN +       CLEAR     77  59  53 CALM      30.11R
FORT WAYNE     CLEAR     79  62  56 SE3       30.11R
HUNTINGTON +   CLEAR     75  66  73 CALM      30.10R

$$

INZ028-029-035-036-043>045-051>053-220200-
WEST CENTRAL INDIANA

CITY           SKY/WX    TMP DP  RH WIND       PRES   REMARKS
GREENCASTLE +  CLEAR     73  64  73 CALM      30.09S
LAFAYETTE      CLEAR     77  67  71 CALM      30.08S
TERRE HAUTE    CLEAR     78  67  68 CALM      30.08S

$$

INZ030>032-037>040-046>048-054>057-064-065-220200-
CENTRAL INDIANA

CITY           SKY/WX    TMP DP  RH WIND       PRES   REMARKS
CP ATTERBURY + CLEAR     77  68  73 CALM      30.09S
COLUMBUS       CLEAR     75  70  83 CALM      30.08S
INDIANAPOLIS   MOCLDY    79  63  57 SW3       30.08F
-EAGLE CREEK   CLOUDY    80  63  55 NW5       30.08S
KOKOMO *+      CLEAR     75  70  83 E3        30.09S
MARION +       CLEAR     74  66  75 CALM      30.10F
MT COMFORT *+  CLEAR     75  70  83 CALM      30.09F
SHELBYVILLE    CLEAR     77  67  71 SE5       30.08F
ZIONSVILLE +   MOCLDY    79  64  61 NW3       30.10S

$$

INZ033-034-041-042-049-050-058-059-220200-
EAST CENTRAL INDIANA

CITY           SKY/WX    TMP DP  RH WIND       PRES   REMARKS
MUNCIE         CLEAR     75  64  68 CALM      30.10S

$$

INZ060-061-067>069-081>083-085>088-220200-
SOUTHWEST INDIANA

CITY           SKY/WX    TMP DP  RH WIND       PRES   REMARKS
EVANSVILLE     CLEAR     82  67  60 NW3       30.06S
HUNTINGBURG *+ CLEAR     79  66  65 CALM      30.07S
WASHINGTON +   CLEAR     75  71  86 CALM      30.06S

$$

INZ062-063-066-070>080-084-089>092-220200-
SOUTH CENTRAL AND SOUTHEAST INDIANA

CITY           SKY/WX    TMP DP  RH WIND       PRES   REMARKS
BEDFORD +      CLEAR     77  64  65 CALM      30.08
BLOOMINGTON    CLEAR     75  68  78 CALM      30.09S
NORTH VERNON + CLEAR     79  70  73 CALM      30.09

$$




USA.gov is the U.S. government's official web portal to all federal, state and local government web resources and services.